| time (UTC) | temp C | wind direction | speed KPH | gust KPH | rain 1hr cm | rain 24hr cm | rain mn cm | humidity % | barometer mb |
| 20260505070238 | 14 | 38 | 16.1 | 20.9 | 0.00 | 0.00 | 1.60 | 90 | 1004.0 |
| 20260505065738 | 14 | 39 | 16.1 | 20.9 | 0.00 | 0.00 | 1.60 | 91 | 1004.0 |
| 20260505065239 | 13 | 39 | 17.7 | 25.7 | 0.00 | 0.00 | 1.57 | 94 | 1004.0 |
| 20260505064740 | 13 | 40 | 14.5 | 17.7 | 0.00 | 0.00 | 1.57 | 96 | 1004.0 |
| 20260505063737 | 14 | 36 | 17.7 | 25.7 | 0.03 | 0.00 | 1.65 | 96 | 1004.0 |
| 20260505062738 | 16 | 33 | 14.5 | 17.7 | 5.84 | 0.00 | 1.17 | 86 | 1004.0 |
| 20260505062238 | 17 | 2 | 11.3 | 14.5 | 0.56 | 0.00 | 1.17 | 80 | 1005.0 |
| 20260505061738 | 18 | 6 | 11.3 | 17.7 | 0.00 | 0.00 | 1.09 | 79 | 1004.0 |
| 20260505061238 | 18 | 45 | 12.9 | 17.7 | 0.00 | 0.00 | 1.09 | 79 | 1003.0 |
| 20260505060737 | 19 | 46 | 11.3 | 16.1 | 0.05 | 0.00 | 0.81 | 87 | 1003.0 |
| 20260505060237 | 19 | 55 | 6.4 | 8.0 | 0.76 | 0.00 | 0.79 | 88 | 1003.0 |
| 20260505055737 | 20 | 52 | 6.4 | 11.3 | 4.17 | 0.00 | 0.71 | 85 | 1003.0 |
| 20260505055237 | 20 | 53 | 4.8 | 12.9 | 0.66 | 0.00 | 0.61 | 84 | 1003.0 |
| 20260505054738 | 20 | 49 | 11.3 | 16.1 | 0.00 | 0.00 | 0.58 | 83 | 1003.0 |
| 20260505054237 | 20 | 47 | 11.3 | 16.1 | 0.00 | 0.00 | 0.58 | 82 | 1003.0 |
| 20260505053737 | 20 | 43 | 9.7 | 12.9 | 0.00 | 0.00 | 0.51 | 83 | 1003.0 |
| 20260505053237 | 20 | 37 | 8.0 | 11.3 | 0.00 | 0.00 | 0.51 | 84 | 1003.0 |
| 20260505052738 | 20 | 14 | 6.4 | 11.3 | 0.00 | 0.00 | 0.51 | 84 | 1003.0 |
| 20260505052240 | 20 | 311 | 3.2 | 3.2 | 0.64 | 0.00 | 0.46 | 85 | 1003.0 |
| 20260505051737 | 20 | 312 | 1.6 | 3.2 | 0.48 | 0.00 | 0.33 | 89 | 1003.0 |
| 20260505051237 | 20 | 314 | 3.2 | 3.2 | 0.51 | 0.00 | 0.25 | 87 | 1003.0 |
| 20260505050737 | 21 | 315 | 1.6 | 3.2 | 1.57 | 0.00 | 0.13 | 84 | 1003.0 |
| 20260505050237 | 21 | 311 | 3.2 | 4.8 | 0.36 | 0.00 | 0.03 | 80 | 1003.0 |
| 20260505041738 | 22 | 299 | 3.2 | 4.8 | 0.00 | 0.00 | 0.00 | 71 | 1002.0 |
| 20260505041237 | 22 | 305 | 3.2 | 4.8 | 0.00 | 0.00 | 0.00 | 71 | 1002.0 |
| 20260505040737 | 22 | 303 | 3.2 | 6.4 | 0.00 | 0.00 | 0.00 | 70 | 1002.0 |
| 20260505040237 | 22 | 307 | 4.8 | 6.4 | 0.00 | 0.00 | 0.00 | 69 | 1002.0 |
| 20260505035737 | 22 | 311 | 3.2 | 6.4 | 0.00 | 0.00 | 0.00 | 69 | 1002.0 |
| 20260505035237 | 22 | 313 | 4.8 | 6.4 | 0.00 | 0.00 | 0.00 | 68 | 1002.0 |
| 20260505034737 | 22 | 314 | 4.8 | 6.4 | 0.00 | 0.00 | 0.00 | 68 | 1002.0 |
| 20260505034237 | 22 | 314 | 4.8 | 6.4 | 0.00 | 0.00 | 0.00 | 67 | 1002.0 |
| 20260505033737 | 22 | 312 | 4.8 | 8.0 | 0.00 | 0.00 | 0.00 | 67 | 1002.0 |
| 20260505033239 | 23 | 313 | 4.8 | 6.4 | 0.00 | 0.00 | 0.00 | 67 | 1002.0 |
| 20260505032737 | 23 | 310 | 4.8 | 9.7 | 0.00 | 0.00 | 0.00 | 67 | 1002.0 |
| 20260505032237 | 23 | 311 | 4.8 | 8.0 | 0.00 | 0.00 | 0.00 | 66 | 1003.0 |
| 20260505031738 | 23 | 313 | 4.8 | 8.0 | 0.00 | 0.00 | 0.00 | 66 | 1002.0 |
| 20260505031237 | 23 | 312 | 6.4 | 8.0 | 0.00 | 0.00 | 0.00 | 66 | 1002.0 |
| 20260505030737 | 23 | 310 | 4.8 | 8.0 | 0.00 | 0.00 | 0.00 | 65 | 1002.0 |
| 20260505030238 | 23 | 308 | 6.4 | 9.7 | 0.00 | 0.00 | 0.00 | 64 | 1002.0 |
| 20260505025737 | 23 | 308 | 6.4 | 9.7 | 0.00 | 0.00 | 0.00 | 64 | 1002.0 |
| 20260505025237 | 23 | 310 | 6.4 | 9.7 | 0.00 | 0.00 | 0.00 | 63 | 1003.0 |
| 20260505024737 | 23 | 310 | 6.4 | 9.7 | 0.00 | 0.00 | 0.00 | 63 | 1003.0 |
| 20260505024237 | 23 | 311 | 6.4 | 11.3 | 0.00 | 0.00 | 0.00 | 63 | 1003.0 |
| 20260505023738 | 23 | 314 | 6.4 | 9.7 | 0.00 | 0.00 | 0.00 | 62 | 1002.0 |
| 20260505022759 | 23 | 312 | 4.8 | 9.7 | 0.00 | 0.00 | 0.00 | 61 | 1002.0 |
| 20260505022237 | 23 | 313 | 6.4 | 9.7 | 0.00 | 0.00 | 0.00 | 61 | 1002.0 |
| 20260505021737 | 23 | 311 | 4.8 | 6.4 | 0.00 | 0.00 | 0.00 | 60 | 1002.0 |
| 20260505021237 | 23 | 313 | 4.8 | 8.0 | 0.00 | 0.00 | 0.00 | 60 | 1002.0 |
| 20260505020737 | 23 | 311 | 6.4 | 9.7 | 0.00 | 0.00 | 0.00 | 59 | 1002.0 |
| 20260505020237 | 24 | 311 | 8.0 | 12.9 | 0.00 | 0.00 | 0.00 | 58 | 1003.0 |
| 20260505015737 | 24 | 311 | 6.4 | 11.3 | 0.00 | 0.00 | 0.00 | 58 | 1003.0 |
| 20260505015237 | 24 | 308 | 9.7 | 14.5 | 0.00 | 0.00 | 0.00 | 57 | 1002.0 |
| 20260505014739 | 24 | 310 | 9.7 | 16.1 | 0.00 | 0.00 | 0.00 | 57 | 1002.0 |
| 20260505014238 | 24 | 303 | 6.4 | 9.7 | 0.00 | 0.00 | 0.00 | 57 | 1002.0 |
| 20260505013737 | 24 | 306 | 6.4 | 12.9 | 0.00 | 0.00 | 0.00 | 56 | 1002.0 |
| 20260505013237 | 24 | 309 | 8.0 | 11.3 | 0.00 | 0.00 | 0.00 | 56 | 1002.0 |
| 20260505012737 | 25 | 309 | 6.4 | 9.7 | 0.00 | 0.00 | 0.00 | 55 | 1002.0 |
| 20260505012237 | 25 | 309 | 6.4 | 9.7 | 0.00 | 0.00 | 0.00 | 54 | 1002.0 |
| 20260505011737 | 25 | 310 | 8.0 | 11.3 | 0.00 | 0.00 | 0.00 | 54 | 1001.0 |
| 20260505011237 | 25 | 310 | 6.4 | 11.3 | 0.00 | 0.00 | 0.00 | 53 | 1001.0 |
| 20260505010737 | 25 | 308 | 9.7 | 12.9 | 0.00 | 0.00 | 0.00 | 53 | 1001.0 |
| 20260505010238 | 25 | 310 | 8.0 | 11.3 | 0.00 | 0.00 | 0.00 | 53 | 1001.0 |
| 20260505005738 | 25 | 306 | 8.0 | 12.9 | 0.00 | 0.00 | 0.00 | 52 | 1001.0 |
| 20260505005237 | 25 | 304 | 8.0 | 9.7 | 0.00 | 0.00 | 0.00 | 52 | 1001.0 |
| 20260505004737 | 25 | 305 | 6.4 | 11.3 | 0.00 | 0.00 | 0.00 | 51 | 1001.0 |
| 20260505004237 | 25 | 309 | 8.0 | 11.3 | 0.00 | 0.00 | 0.00 | 51 | 1001.0 |
| 20260505003738 | 26 | 306 | 9.7 | 14.5 | 0.00 | 0.00 | 0.00 | 50 | 1001.0 |
| 20260505003238 | 26 | 306 | 8.0 | 14.5 | 0.00 | 0.00 | 0.00 | 49 | 1001.0 |
| 20260505002737 | 26 | 308 | 9.7 | 16.1 | 0.00 | 0.00 | 0.00 | 48 | 1001.0 |
| 20260505002238 | 26 | 309 | 8.0 | 11.3 | 0.00 | 0.00 | 0.00 | 48 | 1001.0 |
| 20260505001737 | 26 | 311 | 9.7 | 14.5 | 0.00 | 0.00 | 0.00 | 47 | 1001.0 |
| 20260505001239 | 26 | 309 | 9.7 | 14.5 | 0.00 | 0.00 | 0.00 | 47 | 1001.0 |
| 20260505000738 | 26 | 312 | 6.4 | 9.7 | 0.00 | 0.00 | 0.00 | 47 | 1002.0 |
| 20260505000238 | 26 | 313 | 6.4 | 9.7 | 0.00 | 0.00 | 0.00 | 47 | 1002.0 |
| 20260504235737 | 26 | 312 | 6.4 | 11.3 | 0.00 | 0.00 | 0.00 | 47 | 1002.0 |
| 20260504235237 | 26 | 313 | 8.0 | 11.3 | 0.00 | 0.00 | 0.00 | 47 | 1002.0 |
| 20260504234737 | 26 | 312 | 6.4 | 9.7 | 0.00 | 0.00 | 0.00 | 48 | 1002.0 |
| 20260504234238 | 26 | 311 | 6.4 | 11.3 | 0.00 | 0.00 | 0.00 | 47 | 1002.0 |
| 20260504233739 | 26 | 310 | 9.7 | 14.5 | 0.00 | 0.00 | 0.00 | 47 | 1002.0 |
| 20260504233237 | 27 | 311 | 9.7 | 12.9 | 0.00 | 0.00 | 0.00 | 46 | 1002.0 |
| 20260504232737 | 27 | 312 | 8.0 | 9.7 | 0.00 | 0.00 | 0.00 | 46 | 1002.0 |
| 20260504232238 | 27 | 313 | 6.4 | 8.0 | 0.00 | 0.00 | 0.00 | 46 | 1002.0 |
| 20260504231737 | 27 | 313 | 6.4 | 9.7 | 0.00 | 0.00 | 0.00 | 46 | 1002.0 |
| 20260504231237 | 27 | 312 | 12.9 | 17.7 | 0.00 | 0.00 | 0.00 | 46 | 1002.0 |
| 20260504230737 | 27 | 311 | 14.5 | 17.7 | 0.00 | 0.00 | 0.00 | 46 | 1002.0 |
| 20260504230238 | 27 | 308 | 14.5 | 20.9 | 0.00 | 0.00 | 0.00 | 44 | 1002.0 |
| 20260504225737 | 27 | 307 | 14.5 | 17.7 | 0.00 | 0.00 | 0.00 | 45 | 1002.0 |
| 20260504225238 | 27 | 312 | 9.7 | 14.5 | 0.00 | 0.00 | 0.00 | 45 | 1002.0 |
| 20260504224738 | 27 | 313 | 11.3 | 16.1 | 0.00 | 0.00 | 0.00 | 45 | 1002.0 |
| 20260504224237 | 27 | 311 | 14.5 | 17.7 | 0.00 | 0.00 | 0.00 | 44 | 1002.0 |
| 20260504223740 | 28 | 309 | 14.5 | 17.7 | 0.00 | 0.00 | 0.00 | 43 | 1002.0 |
| 20260504223238 | 28 | 314 | 9.7 | 17.7 | 0.00 | 0.00 | 0.00 | 43 | 1002.0 |
| 20260504222738 | 28 | 309 | 9.7 | 14.5 | 0.00 | 0.00 | 0.00 | 43 | 1001.0 |
| 20260504222237 | 28 | 312 | 9.7 | 17.7 | 0.00 | 0.00 | 0.00 | 43 | 1001.0 |
| 20260504221737 | 28 | 313 | 9.7 | 14.5 | 0.00 | 0.00 | 0.00 | 43 | 1001.0 |
| 20260504221237 | 28 | 313 | 6.4 | 11.3 | 0.00 | 0.00 | 0.00 | 42 | 1001.0 |
| 20260504220737 | 28 | 310 | 11.3 | 16.1 | 0.00 | 0.00 | 0.00 | 42 | 1002.0 |
| 20260504220237 | 28 | 309 | 9.7 | 16.1 | 0.00 | 0.00 | 0.00 | 42 | 1002.0 |
| 20260504215738 | 29 | 311 | 9.7 | 12.9 | 0.00 | 0.00 | 0.00 | 42 | 1002.0 |
| 20260504215237 | 29 | 316 | 6.4 | 9.7 | 0.00 | 0.00 | 0.00 | 41 | 1002.0 |
| 20260504214738 | 29 | 310 | 14.5 | 19.3 | 0.00 | 0.00 | 0.00 | 41 | 1002.0 |
| 20260504214237 | 30 | 313 | 12.9 | 17.7 | 0.00 | 0.00 | 0.00 | 39 | 1002.0 |
| 20260504213737 | 30 | 304 | 14.5 | 19.3 | 0.00 | 0.00 | 0.00 | 40 | 1002.0 |
| 20260504213237 | 30 | 306 | 8.0 | 11.3 | 0.00 | 0.00 | 0.00 | 39 | 1002.0 |
| 20260504212737 | 30 | 300 | 9.7 | 16.1 | 0.00 | 0.00 | 0.00 | 37 | 1002.0 |
| 20260504212238 | 31 | 307 | 8.0 | 12.9 | 0.00 | 0.00 | 0.00 | 36 | 1002.0 |
| 20260504211738 | 31 | 314 | 6.4 | 9.7 | 0.00 | 0.00 | 0.00 | 35 | 1002.0 |
| 20260504211237 | 31 | 313 | 6.4 | 9.7 | 0.00 | 0.00 | 0.00 | 35 | 1002.0 |
| 20260504210737 | 31 | 310 | 6.4 | 9.7 | 0.00 | 0.00 | 0.00 | 35 | 1002.0 |
| 20260504210237 | 31 | 307 | 4.8 | 6.4 | 0.00 | 0.00 | 0.00 | 34 | 1002.0 |
| 20260504205738 | 31 | 311 | 4.8 | 6.4 | 0.00 | 0.00 | 0.00 | 36 | 1002.0 |
| 20260504205237 | 31 | 312 | 4.8 | 6.4 | 0.00 | 0.00 | 0.00 | 34 | 1002.0 |
| 20260504204739 | 30 | 315 | 6.4 | 8.0 | 0.00 | 0.00 | 0.00 | 36 | 1002.0 |
| 20260504204238 | 30 | 313 | 6.4 | 8.0 | 0.00 | 0.00 | 0.00 | 36 | 1002.0 |
| 20260504203737 | 30 | 312 | 6.4 | 9.7 | 0.00 | 0.00 | 0.00 | 36 | 1002.0 |
| 20260504203237 | 30 | 313 | 3.2 | 4.8 | 0.00 | 0.00 | 0.00 | 35 | 1002.0 |
| 20260504202737 | 30 | 307 | 6.4 | 8.0 | 0.00 | 0.00 | 0.00 | 37 | 1003.0 |
| 20260504202238 | 30 | 305 | 6.4 | 9.7 | 0.00 | 0.00 | 0.00 | 36 | 1003.0 |
| 20260504201738 | 30 | 303 | 4.8 | 6.4 | 0.00 | 0.00 | 0.00 | 37 | 1003.0 |
| 20260504201238 | 30 | 292 | 3.2 | 4.8 | 0.00 | 0.00 | 0.00 | 38 | 1003.0 |
| 20260504200738 | 30 | 307 | 4.8 | 6.4 | 0.00 | 0.00 | 0.00 | 37 | 1003.0 |
| 20260504200238 | 30 | 300 | 6.4 | 8.0 | 0.00 | 0.00 | 0.00 | 39 | 1003.0 |
| 20260504195737 | 30 | 302 | 6.4 | 8.0 | 0.00 | 0.00 | 0.00 | 38 | 1003.0 |
| 20260504195237 | 29 | 310 | 4.8 | 6.4 | 0.00 | 0.00 | 0.00 | 38 | 1003.0 |
| 20260504194739 | 29 | 305 | 6.4 | 8.0 | 0.00 | 0.00 | 0.00 | 38 | 1003.0 |
| 20260504194238 | 29 | 310 | 4.8 | 11.3 | 0.00 | 0.00 | 0.00 | 40 | 1003.0 |
| 20260504193737 | 28 | 310 | 4.8 | 8.0 | 0.00 | 0.00 | 0.00 | 41 | 1003.0 |
| 20260504193237 | 28 | 306 | 8.0 | 11.3 | 0.00 | 0.00 | 0.00 | 39 | 1004.0 |
| 20260504192738 | 28 | 337 | 6.4 | 14.5 | 0.00 | 0.00 | 0.00 | 43 | 1004.0 |
| 20260504192237 | 28 | 30 | 14.5 | 17.7 | 0.00 | 0.00 | 0.00 | 40 | 1004.0 |
| 20260504191737 | 27 | 16 | 9.7 | 25.7 | 0.00 | 0.00 | 0.00 | 42 | 1004.0 |
| 20260504191238 | 27 | 19 | 11.3 | 20.9 | 0.00 | 0.00 | 0.00 | 42 | 1004.0 |
| 20260504190738 | 28 | 11 | 11.3 | 20.9 | 0.00 | 0.00 | 0.00 | 40 | 1004.0 |
| 20260504190237 | 28 | 357 | 11.3 | 17.7 | 0.00 | 0.00 | 0.00 | 41 | 1004.0 |
| 20260504185737 | 28 | 5 | 12.9 | 19.3 | 0.00 | 0.00 | 0.00 | 40 | 1004.0 |
| 20260504185238 | 27 | 2 | 11.3 | 17.7 | 0.00 | 0.00 | 0.00 | 43 | 1004.0 |
| 20260504184737 | 27 | 359 | 9.7 | 17.7 | 0.00 | 0.00 | 0.00 | 43 | 1004.0 |
| 20260504184237 | 27 | 340 | 9.7 | 14.5 | 0.00 | 0.00 | 0.00 | 42 | 1004.0 |
| 20260504183738 | 27 | 323 | 6.4 | 9.7 | 0.00 | 0.00 | 0.00 | 42 | 1004.0 |
| 20260504183238 | 27 | 312 | 6.4 | 11.3 | 0.00 | 0.00 | 0.00 | 41 | 1004.0 |
| 20260504182737 | 27 | 328 | 6.4 | 16.1 | 0.00 | 0.00 | 0.00 | 43 | 1004.0 |
| 20260504182237 | 27 | 314 | 9.7 | 24.1 | 0.00 | 0.00 | 0.00 | 41 | 1004.0 |
| 20260504181238 | 26 | 308 | 4.8 | 8.0 | 0.00 | 0.00 | 0.00 | 47 | 1004.0 |
| 20260504180737 | 26 | 308 | 6.4 | 8.0 | 0.00 | 0.00 | 0.00 | 44 | 1004.0 |
| 20260504180237 | 26 | 304 | 6.4 | 8.0 | 0.00 | 0.00 | 0.00 | 44 | 1005.0 |
| 20260504175737 | 26 | 306 | 6.4 | 9.7 | 0.00 | 0.00 | 0.00 | 45 | 1005.0 |
| 20260504175237 | 26 | 304 | 11.3 | 14.5 | 0.00 | 0.00 | 0.00 | 43 | 1005.0 |
| 20260504174737 | 25 | 303 | 8.0 | 9.7 | 0.00 | 0.00 | 0.00 | 46 | 1005.0 |
| 20260504174237 | 25 | 311 | 6.4 | 9.7 | 0.00 | 0.00 | 0.00 | 44 | 1005.0 |
| 20260504173738 | 25 | 309 | 6.4 | 9.7 | 0.00 | 0.00 | 0.00 | 43 | 1005.0 |
| 20260504173238 | 25 | 306 | 6.4 | 6.4 | 0.00 | 0.00 | 0.00 | 46 | 1005.0 |
| 20260504172738 | 25 | 312 | 6.4 | 9.7 | 0.00 | 0.00 | 0.00 | 45 | 1005.0 |
| 20260504172238 | 25 | 308 | 6.4 | 9.7 | 0.00 | 0.00 | 0.00 | 46 | 1005.0 |
| 20260504171738 | 25 | 309 | 6.4 | 8.0 | 0.00 | 0.00 | 0.00 | 47 | 1005.0 |
| 20260504171238 | 24 | 313 | 6.4 | 9.7 | 0.00 | 0.00 | 0.00 | 48 | 1005.0 |
| 20260504170737 | 24 | 311 | 8.0 | 11.3 | 0.00 | 0.00 | 0.00 | 47 | 1005.0 |
| 20260504170237 | 24 | 311 | 6.4 | 9.7 | 0.00 | 0.00 | 0.00 | 49 | 1005.0 |
| 20260504160240 | 23 | 302 | 9.7 | 12.9 | 0.00 | 0.00 | 0.00 | 50 | 1005.0 |
| 20260504150739 | 21 | 301 | 12.9 | 17.7 | 0.00 | 0.00 | 0.00 | 53 | 1005.0 |
| 20260504150238 | 21 | 293 | 14.5 | 20.9 | 0.00 | 0.00 | 0.00 | 53 | 1005.0 |
| 20260504141237 | 19 | 304 | 11.3 | 14.5 | 0.00 | 0.00 | 0.00 | 57 | 1005.0 |
| 20260504140738 | 19 | 302 | 11.3 | 17.7 | 0.00 | 0.00 | 0.00 | 57 | 1005.0 |
| 20260504140238 | 19 | 304 | 6.4 | 8.0 | 0.00 | 0.00 | 0.00 | 57 | 1005.0 |
| 20260504130738 | 17 | 303 | 9.7 | 14.5 | 0.00 | 0.00 | 0.00 | 60 | 1005.0 |
| 20260504130238 | 17 | 293 | 9.7 | 17.7 | 0.00 | 0.00 | 0.00 | 60 | 1005.0 |
| 20260504120237 | 16 | 304 | 9.7 | 11.3 | 0.00 | 0.00 | 0.00 | 61 | 1005.0 |
| 20260504110238 | 16 | 305 | 6.4 | 12.9 | 0.00 | 0.00 | 0.00 | 58 | 1005.0 |
| 20260504100238 | 17 | 301 | 14.5 | 17.7 | 0.00 | 0.00 | 0.00 | 54 | 1005.0 |
| 20260504081738 | 18 | 307 | 14.5 | 16.1 | 0.00 | 0.00 | 0.00 | 50 | 1006.0 |
| 20260504081238 | 18 | 304 | 12.9 | 16.1 | 0.00 | 0.00 | 0.00 | 50 | 1006.0 |
| 20260504080738 | 19 | 305 | 11.3 | 16.1 | 0.00 | 0.00 | 0.00 | 49 | 1006.0 |
| 20260504080240 | 19 | 301 | 12.9 | 17.7 | 0.00 | 0.00 | 0.00 | 49 | 1006.0 |